Content
SEND FEEDBACK

Daily
Averages
Monthly
Summary
United States of America

SOUTH LAKE TAHOE, CALIFORNIA


Home > North America > United States > California
Elevation: 1908 meters     Latitude: 38 53N     Longitude: 119 59W

WEATHER
 
SELECT A DAY
Number of Records: 174,603;   Date Range: 1/1/95 - 9/16/14
 
SHARE

PRINT THIS DATA

[ ← Previous Day ]
WEATHER ALMANAC - 7 APRIL, 2013
[ Next Day → ]
[ °F ]   °C
Weather ElementAverageHighLow
Temperature5.3 °C11.7 °C (12:53 pm)1 °C (11:36 pm)
Dewpoint-2.3 °C0 °C (3:53 am)-4.4 °C (7:53 pm)
Humidity60.2 %81 % (11:57 pm)37 % (12:53 pm)
Barometer1011.9 hPa1019 hPa (7:27 am)1002.7 hPa (11:53 pm)
Wind Speed25.1 km/h38.9 km/h (4:53 pm)
Wind Gust62.9 km/h (4:53 pm)
Weather ElementAverage
Visibility13 km
Wind DirectionSSW (196.9 °)

Weather ElementTotal
Precipitation1.27 mm
Heating Degree Days12 (Base 18.3)
Averaged from 39 records on 7 April, 2013
WEATHER CONDITIONS BREAKOUT
WIND DIRECTION BREAKOUT
WEATHER BY HOUR - 7 APRIL, 2013
[ °F ]   °C
Local TimeTemperatureDewpointHumidityBarometerVisibilityWind DirectionWind SpeedGust SpeedPrecipitationEventsConditions
1:53 AM5.6 °C-1.1 °C62 %1016.9 hPa16.1 kmSSE (160°)24.1 km/h0 mmRainLight Rain
2:53 AM5.6 °C-1.7 °C60 %1016.3 hPa16.1 kmSSE (160°)22.2 km/h37 km/h0 mmOvercast
3:53 AM4.4 °C0 °C73 %1016.3 hPa16.1 kmSouth (180°)25.9 km/h0 mmRainLight Rain
4:53 AM5 °C-0.6 °C67 %1015.9 hPa16.1 kmSouth (180°)27.8 km/h37 km/h0 mmOvercast
5:00 AM5 °C-1 °C65 %1018.6 hPa16.1 kmSSW (200°)27.8 km/h40.7 km/hOvercast
5:28 AM4 °C0 °C75 %1018.3 hPa16.1 kmSSW (200°)22.2 km/h38.9 km/hOvercast
5:35 AM4 °C0 °C75 %1018.3 hPa16.1 kmSouth (190°)25.9 km/h35.2 km/h0 mmRainLight Rain
5:42 AM4 °C0 °C75 %1018.6 hPa16.1 kmSouth (190°)22.2 km/h35.2 km/h0 mmOvercast
5:53 AM4.4 °C-0.6 °C70 %1016.3 hPa16.1 kmSSW (200°)25.9 km/h35.2 km/h0 mmMostly Cloudy
6:17 AM5 °C-1 °C65 %1018.6 hPa16.1 kmSSW (200°)18.5 km/h25.9 km/hMostly Cloudy
6:53 AM4.4 °C-0.6 °C70 %1016.6 hPa16.1 kmSouth (190°)20.4 km/h0 mmRainLight Rain
7:06 AM4 °C-1 °C70 %1018.6 hPa16.1 kmSSW (200°)22.2 km/h0 mmOvercast
7:27 AM4 °C-1 °C70 %1019 hPa16.1 kmSSW (200°)14.8 km/h0 mmScattered Clouds
7:53 AM5 °C-0.6 °C67 %1016.6 hPa16.1 kmSouth (190°)29.6 km/h37 km/h0 mmClear
8:53 AM6.7 °C-2.2 °C53 %1016.3 hPa16.1 kmSouth (190°)25.9 km/hClear
9:53 AM7.8 °C-2.2 °C50 %1015.2 hPa16.1 kmSouth (180°)24.1 km/h38.9 km/hClear
10:53 AM10 °C-3.3 °C39 %1015.2 hPa16.1 kmSouth (190°)25.9 km/h37 km/hClear
11:53 AM10.6 °C-2.2 °C41 %1014.6 hPa16.1 kmSSW (200°)18.5 km/h35.2 km/hClear
12:53 PM11.7 °C-2.8 °C37 %1012.9 hPa16.1 kmSSW (200°)27.8 km/h42.6 km/hClear
1:53 PM11.7 °C-2.8 °C37 %1011.5 hPa16.1 kmSSW (200°)27.8 km/h55.5 km/hClear
2:53 PM10.6 °C-2.8 °C39 %1010.5 hPa16.1 kmSSW (210°)25.9 km/h55.5 km/hClear
3:53 PM10.6 °C-3.3 °C38 %1010.2 hPa16.1 kmSSW (210°)22.2 km/h55.5 km/hClear
4:53 PM8.9 °C-3.3 °C42 %1009.8 hPa16.1 kmSSW (200°)38.9 km/h62.9 km/hClear
5:53 PM7.8 °C-2.8 °C47 %1009.5 hPa16.1 kmSSW (200°)33.3 km/h51.8 km/hClear
6:53 PM7.2 °C-3.3 °C48 %1008.1 hPa16.1 kmSSW (200°)31.5 km/h46.3 km/hOvercast
7:53 PM5.6 °C-4.4 °C49 %1007.5 hPa16.1 kmSW (220°)20.4 km/h53.8 km/hMostly Cloudy
8:30 PM4 °C-3 °C61 %1009.1 hPa4.8 kmSW (220°)18.5 km/h59.2 km/h0.25 mmHaze
8:40 PM4 °C-4 °C56 %1009.1 hPa16.1 kmSW (220°)24.1 km/h42.6 km/h0.25 mmRainLight Rain
8:53 PM3.9 °C-4.4 °C55 %1006.4 hPa16.1 kmSSW (200°)25.9 km/h46.3 km/h0.25 mmMostly Cloudy
9:53 PM2.8 °C-4.4 °C59 %1005.1 hPa8 kmSouth (190°)27.8 km/h57.5 km/h0.25 mmSnowLight Snow
10:25 PM2 °C-3 °C70 %1007.1 hPa4 kmSSW (200°)35.2 km/h53.8 km/h0 mmSnowLight Snow
10:32 PM3 °C-4 °C60 %1006.8 hPa8 kmSSW (210°)22.2 km/h57.5 km/h0 mmSnowLight Snow
10:53 PM2.8 °C-3.9 °C62 %1004.1 hPa12.9 kmSSW (200°)37 km/h53.8 km/h0 mmSnowLight Snow
11:02 PM2 °C-4 °C65 %1006.1 hPa6.4 kmSSW (210°)27.8 km/h59.2 km/h0 mmSnowLight Snow
11:08 PM2 °C-3 °C70 %1006.1 hPa2.9 kmSSW (200°)27.8 km/h51.8 km/h0 mmSnowLight Snow
11:20 PM2 °C-3 °C70 %1005.4 hPa4.8 kmSouth (180°)22.2 km/h37 km/h0 mmSnowLight Snow
11:36 PM1 °C-3 °C75 %1005.1 hPa2.9 kmSSW (200°)24.1 km/h33.3 km/h0 mmSnowLight Snow
11:53 PM1.1 °C-2.2 °C79 %1002.7 hPa1.3 kmSSW (200°)14.8 km/h33.3 km/h0.25 mmSnowLight Snow
11:57 PM1 °C-2 °C81 %1005.1 hPa0.8 kmSSW (210°)18.5 km/h33.3 km/h0 mmSnowSnow
Hourly data recorded from KTVL, located 0 kilometers away from South Lake Tahoe, California







STORIES FROM OUR PARTNERS